Location: Little Arabia
(41.4620°N, 81.7687°W)
Time: 19:36:03
(UTC+00:00)

YAOGAN 1 - Pass Details

Date: 29 October 2020
Orbit: 618 x 620 km, 97.9° (Epoch: 02 December)

Event Time Altitude Azimuth Distance (km) Brightness Sun altitude
Rises 23:41:33 0° 151° (SSE) 2,884 5.8 -14.8°
Reaches altitude 10° 23:43:47 10° 145° (SE) 1,982 4.9 -15.3°
Maximum altitude 23:47:55 46° 72° (ENE) 833 2.8 -16.0°
Drops below altitude 10° 23:52:04 10° 359° (N) 1,996 5.1 -16.8°
Sets 23:54:20 0° 354° (N) 2,907 6.0 -17.2°
